GFSWCAN_con_lsi_159.txt.gz
Lid_Strength_Index
3 3 2 2 2 2 2 2 2 3 4 3 3 4 5 5 6 6 6 4 7 10 9 8 6 7 6 6 9 6 8 8 9 12 13 13 13 11 12 13 14 15 15 15 14 16 18 10 9 13 10 9 7 7
4 3 3 3 3 3 2 2 3 3 4 4 3 4 5 5 6 6 7 5 6 9 9 6 6 5 5 4 5 5 7 9 7 11 12 13 13 12 12 16 12 15 14 15 14 14 10 10 11 9 9 7 7 7
3 3 3 3 3 3 3 3 3 4 4 4 3 4 4 5 6 6 6 5 6 9 8 6 6 3 2 2 1 6 5 6 7 6 11 13 14 11 14 14 14 13 12 14 14 11 11 11 9 9 6 6 6 6
3 3 3 3 3 3 3 3 3 4 3 3 3 4 5 5 5 6 6 5 6 9 11 7 3 4 2 1 1 1 3 3 6 7 10 12 13 11 13 13 14 14 13 14 13 12 11 11 10 9 7 7 8 8
4 3 3 3 3 3 3 3 4 4 3 3 3 4 5 5 5 5 5 5 6 8 10 9 6 3 1 1 1 2 3 4 8 9 9 11 10 12 11 12 13 14 15 15 14 13 12 11 10 9 8 10 9 9
4 4 3 3 3 3 3 3 4 4 3 3 3 4 5 5 5 6 7 5 4 5 10 11 5 4 2 1 2 3 4 4 7 8 8 7 7 10 13 13 12 12 12 12 13 12 11 10 9 9 9 9 9 9
4 4 4 3 3 3 3 4 4 4 3 3 3 4 5 5 5 7 7 6 5 6 9 11 8 4 2 2 2 2 3 4 6 6 7 7 9 9 12 14 13 12 11 11 11 11 12 11 11 9 9 9 8 10
5 4 4 4 4 4 4 4 4 3 3 4 4 4 5 5 6 7 5 6 4 7 8 11 9 6 2 4 5 3 4 5 5 6 6 8 8 9 13 13 12 11 12 13 12 12 12 11 10 10 9 9 10 10
5 4 4 4 4 4 4 4 3 3 4 4 5 5 5 6 8 6 5 5 5 7 9 9 10 10 3 4 3 5 3 7 4 8 8 8 10 13 12 12 12 12 13 14 12 12 12 12 12 11 10 10 11 11
4 4 4 4 4 4 4 3 3 4 5 5 6 6 7 6 4 4 6 8 9 9 9 9 6 7 4 5 6 6 5 7 10 7 5 9 10 10 10 11 11 10 12 12 13 14 13 13 12 12 11 11 11 12
5 4 4 4 4 3 3 4 4 5 5 6 7 6 4 4 5 6 9 9 9 10 7 6 6 7 3 7 7 5 9 8 12 9 9 10 11 10 9 10 10 10 10 11 12 12 11 12 12 12 12 11 11 11
5 4 4 4 3 3 3 4 4 5 6 6 6 5 4 6 7 10 11 8 9 9 6 7 6 5 4 2 6 7 9 9 13 6 10 13 9 9 9 10 10 9 10 11 12 12 11 11 11 10 11 11 11 10
5 4 3 3 3 2 3 3 4 4 4 4 7 8 8 8 11 12 14 10 9 6 5 5 7 5 4 4 6 7 10 11 6 10 11 9 8 9 9 9 10 10 10 11 11 11 11 12 11 10 11 10 10 10
4 3 3 3 2 2 3 4 5 4 5 7 7 11 10 11 10 9 10 7 5 5 6 6 6 6 5 7 6 10 7 7 11 12 13 9 7 9 9 9 10 11 11 11 11 11 11 12 11 11 11 10 11 11
4 3 3 2 2 2 3 4 3 4 5 7 7 10 9 7 7 6 6 5 4 4 5 5 5 5 6 7 6 8 11 12 11 11 9 7 7 8 9 9 10 11 11 11 11 11 11 10 11 11 10 10 10 10
4 3 2 2 1 1 3 4 5 5 6 8 7 8 7 8 8 7 6 5 4 4 3 4 6 7 8 7 9 10 10 11 9 7 5 6 8 8 9 9 8 8 8 9 9 10 10 10 10 10 10 10 10 10
3 3 1 1 1 2 3 5 6 7 8 9 9 8 9 9 7 6 5 5 3 4 7 7 9 9 5 8 9 7 8 7 6 5 5 5 7 8 8 8 7 8 8 8 8 8 9 9 9 9 10 10 10 9
3 1 1 0 2 4 6 6 8 9 10 9 10 8 7 7 6 6 4 3 3 5 5 8 6 8 8 10 9 5 6 5 4 4 4 6 7 8 8 9 7 7 8 8 9 9 8 9 10 10 9 9 9 10
1 1 1 1 3 5 8 7 6 9 9 8 7 6 6 6 4 4 3 2 2 2 4 5 7 8 7 6 6 5 4 4 6 5 5 5 6 8 8 7 7 7 8 8 8 9 9 8 9 10 10 10 10 10
1 1 1 2 3 5 7 8 5 8 9 7 6 6 5 5 4 4 3 3 3 4 6 6 7 5 4 3 2 3 3 4 5 6 6 6 6 6 7 7 7 7 8 8 8 9 9 10 10 10 10 10 11 11
1 1 2 3 4 5 6 7 7 7 7 7 5 6 6 5 5 4 4 3 5 6 6 5 4 3 2 2 2 3 3 3 4 4 6 7 7 6 7 7 7 7 8 8 9 9 9 9 9 10 10 10 10 10
3 2 4 4 6 5 6 5 6 5 5 6 6 5 6 6 5 5 3 5 6 5 4 4 4 3 2 3 2 2 2 2 2 3 6 7 7 7 8 8 8 8 8 8 8 8 8 9 9 9 9 9 9 8
2 3 4 5 7 7 8 4 7 6 8 6 5 7 6 5 4 2 5 5 4 3 2 3 2 1 2 2 2 2 2 2 3 3 5 5 6 5 7 7 7 7 8 7 7 8 8 9 9 8 8 8 7 8
3 5 7 7 7 8 5 6 5 6 6 6 7 8 6 5 4 6 7 5 4 3 2 2 2 3 2 2 4 4 2 2 3 3 3 5 6 6 6 7 7 7 7 7 7 8 7 8 9 7 7 7 7 7
7 8 7 9 6 7 8 8 7 7 8 7 7 7 6 4 7 7 7 5 4 4 3 2 2 3 4 4 4 3 1 2 3 4 4 4 5 5 6 6 6 6 6 7 7 7 7 7 7 7 6 6 6 7
10 7 8 7 7 8 7 9 8 7 7 8 7 5 5 6 9 9 5 3 3 4 3 2 3 3 3 2 4 4 2 1 2 3 3 4 4 4 6 7 7 7 5 5 6 6 7 7 6 6 6 6 10 6
10 8 6 4 5 5 7 6 5 7 8 8 6 7 7 10 9 7 3 3 3 3 2 2 2 2 2 2 2 1 1 1 2 2 2 3 2 2 4 6 6 6 5 6 6 6 6 6 6 5 5 5 5 5
7 6 8 6 6 6 8 7 8 8 7 5 6 9 9 9 9 5 4 2 2 1 1 1 1 1 2 2 2 2 2 1 1 1 1 2 1 1 1 3 3 9 5 5 5 5 6 5 5 5 5 5 5 4
7 5 6 8 7 7 6 7 7 6 5 6 8 8 7 5 4 4 3 2 1 2 2 3 2 1 1 1 1 2 2 2 3 5 5 5 5 4 2 3 4 4 4 5 11 7 5 5 4 4 4 4 4 4
7 5 7 7 8 8 5 4 6 5 4 4 4 6 5 4 2 1 1 2 3 3 3 2 3 2 3 3 3 3 3 2 2 3 5 5 5 3 2 2 3 4 3 4 4 4 11 5 6 3 4 4 3 3
5 6 7 6 7 5 4 4 3 4 4 5 4 6 6 4 3 2 2 2 2 2 2 3 2 2 3 3 3 3 4 4 3 3 2 2 3 3 3 2 2 2 2 3 3 3 3 3 2 3 3 3 3 4
6 7 7 8 6 4 3 5 5 6 6 6 6 5 5 5 6 3 1 1 2 2 5 3 3 2 2 2 2 2 7 5 6 5 3 2 3 2 2 2 2 1 1 2 2 2 2 2 2 2 3 2 2 2
6 5 5 6 6 6 5 6 7 7 6 6 6 5 5 5 7 3 -0 0 1 1 1 2 1 1 1 3 3 3 5 6 9 11 11 12 12 9 3 2 2 2 2 1 1 1 2 2 1 2 2 1 2 2

GFSWCAN_con_lsi_162.txt.gz
Lid_Strength_Index
5 4 4 3 3 3 3 2 2 2 2 3 3 3 3 4 5 5 5 2 6 8 8 7 7 8 8 7 9 6 7 7 9 11 12 13 13 12 13 13 15 15 15 15 14 16 19 10 11 15 12 11 9 8
4 4 3 3 3 3 3 3 2 2 2 3 3 3 3 4 4 5 6 2 3 7 8 6 6 5 6 6 6 5 6 7 8 11 10 12 14 12 13 16 12 15 14 16 15 14 10 10 12 10 9 8 7 8
4 4 4 4 3 3 3 3 3 2 2 3 3 3 3 4 4 5 5 4 5 7 8 7 7 4 3 3 2 6 5 5 6 6 9 12 14 11 14 14 14 12 12 14 14 12 11 10 10 9 8 7 8 7
4 4 4 4 4 3 3 3 3 3 3 3 3 3 3 3 4 4 6 4 5 8 11 8 3 5 3 2 2 2 3 3 4 6 9 11 14 11 13 13 14 13 13 14 13 11 11 10 11 9 8 7 8 8
5 4 4 4 4 3 3 3 3 3 3 3 3 3 3 4 4 4 4 4 4 7 10 9 6 3 2 3 3 2 3 4 6 8 9 11 10 11 11 12 14 14 15 15 15 13 12 11 10 8 9 9 8 10
5 5 5 4 4 4 3 3 3 3 3 3 3 3 3 4 5 5 6 4 3 5 9 11 5 5 3 2 3 3 4 4 5 7 8 7 7 10 13 14 12 12 11 12 13 11 11 10 10 9 9 9 8 10
5 5 4 4 4 4 3 3 3 4 4 3 3 3 4 4 5 6 6 6 5 4 9 10 9 4 3 2 3 4 3 4 5 7 8 7 8 9 12 14 13 11 12 12 11 11 11 11 11 9 9 9 8 9
6 5 5 4 4 4 4 4 4 4 3 3 4 5 5 5 5 6 4 5 4 7 7 11 10 6 2 5 6 3 5 5 6 6 6 7 7 9 14 13 12 11 12 12 12 11 11 10 9 9 9 9 10 10
6 6 5 4 4 4 4 4 4 3 4 5 5 5 5 6 6 5 3 4 5 7 10 9 10 9 3 5 4 5 4 8 5 7 7 7 9 12 12 12 12 12 14 13 12 12 11 11 10 10 10 10 11 11
6 6 5 4 3 3 3 3 3 4 5 5 7 8 8 5 3 3 7 9 10 9 9 10 7 9 5 5 6 6 5 9 10 8 6 8 10 8 10 10 11 11 12 12 13 13 12 12 11 11 11 10 11 11
6 6 4 4 3 3 3 3 4 5 6 6 7 7 3 2 4 6 8 9 8 10 9 8 7 7 4 7 7 5 8 7 11 9 9 10 11 9 9 10 10 10 11 11 11 11 11 11 11 11 10 11 10 11
6 6 5 4 4 4 3 3 4 5 5 6 6 4 4 5 7 9 10 8 9 9 7 7 6 5 5 3 6 7 9 8 12 6 9 12 9 8 9 10 10 10 12 11 11 11 11 11 10 10 11 11 10 10
6 6 5 4 3 3 3 2 4 4 3 5 6 7 6 6 11 11 12 10 9 6 6 6 7 6 4 4 6 7 10 11 6 10 11 10 7 8 9 9 10 11 11 11 11 11 11 10 10 10 11 10 10 11
5 5 5 3 2 2 2 1 3 4 5 8 8 11 8 9 8 8 7 7 5 5 5 5 6 7 4 6 7 10 8 7 12 13 13 8 7 8 9 9 10 11 11 11 12 11 11 11 10 10 10 10 10 11
5 4 4 3 2 1 1 2 3 4 6 8 7 11 8 5 5 5 4 5 4 5 4 5 6 6 7 7 7 8 10 12 11 11 9 6 6 8 9 10 10 11 11 12 11 11 11 10 10 11 10 9 10 10
4 3 2 1 1 2 2 3 4 4 6 7 7 8 5 6 6 5 5 5 4 4 3 5 7 9 9 8 9 10 10 12 10 8 6 5 6 8 9 9 9 10 11 11 11 10 11 11 10 11 10 10 10 10
4 4 1 2 2 1 3 4 5 7 7 8 7 5 5 6 6 6 5 6 3 5 7 6 10 10 6 9 9 8 9 8 6 6 5 4 6 8 8 8 7 8 10 10 10 10 10 10 10 11 11 11 10 9
4 3 2 1 2 3 4 4 6 7 8 7 7 6 5 5 6 5 5 5 4 5 6 8 6 10 9 10 10 8 6 5 5 4 4 4 5 6 7 7 7 7 8 9 9 9 9 10 10 11 10 10 9 9
3 2 2 1 2 4 6 6 6 8 7 6 6 5 6 5 5 4 4 4 3 2 4 6 9 9 8 7 7 7 5 5 6 5 5 4 4 6 7 7 7 7 8 8 9 9 10 9 9 10 10 10 10 10
2 2 1 1 1 5 7 6 4 7 8 6 6 6 6 5 4 4 4 4 4 4 6 7 7 6 6 6 4 4 4 4 5 7 6 5 4 5 6 7 7 7 7 8 8 9 8 9 10 9 9 10 10 10
1 1 1 1 4 5 6 6 6 5 6 6 5 6 6 5 5 5 4 3 5 6 7 5 4 3 3 4 3 2 3 3 4 5 6 6 4 5 5 6 6 7 8 8 9 9 10 9 10 10 10 10 9 9
2 1 3 3 5 5 5 4 5 4 6 6 6 5 6 7 6 5 3 5 6 5 4 4 3 4 4 4 3 2 2 2 3 4 5 5 5 5 5 6 7 8 8 8 9 9 9 9 9 9 10 10 10 9
2 3 4 5 6 7 7 4 6 6 7 6 5 7 6 6 5 3 6 4 5 3 3 3 3 3 4 3 2 2 2 3 4 4 4 4 4 5 5 6 6 7 8 8 8 8 8 10 10 9 9 10 10 11
3 5 6 6 6 8 5 7 5 6 6 7 7 8 6 5 4 5 7 6 4 3 3 3 4 4 3 3 3 3 3 2 3 3 3 3 5 6 5 6 6 6 6 7 7 7 7 7 9 9 10 9 10 10
7 7 6 9 6 7 8 8 7 7 8 7 7 7 7 5 7 8 8 6 5 4 4 3 3 3 4 4 3 3 2 2 3 4 3 3 4 4 5 6 6 6 6 7 8 8 8 7 7 7 8 8 9 9
9 6 8 7 7 8 7 9 8 8 7 7 7 5 5 7 9 9 6 6 5 5 4 3 4 4 3 3 3 3 3 2 2 3 3 4 4 4 5 7 7 7 5 6 7 8 8 8 7 7 7 8 11 8
9 8 5 4 5 5 6 6 5 7 8 9 7 7 8 10 9 8 4 4 4 3 2 2 2 3 3 3 2 2 1 1 2 2 1 2 3 2 4 6 7 6 5 6 6 6 7 7 7 7 7 6 6 6
6 5 8 6 6 5 7 7 8 8 8 6 7 9 9 9 9 5 4 2 2 2 2 2 2 2 2 2 2 2 1 1 1 1 1 2 2 1 2 2 3 9 5 4 5 5 5 6 5 6 6 6 6 5
6 5 5 7 6 6 6 7 7 7 5 6 9 9 8 5 3 3 2 2 2 2 3 3 2 2 2 1 1 1 2 2 4 5 5 5 5 4 2 2 3 4 5 5 12 8 5 6 5 5 5 5 4 4
6 4 6 7 8 8 5 5 6 5 4 4 4 5 4 4 2 1 2 2 3 3 2 2 2 2 3 3 3 3 3 3 3 3 4 5 4 3 2 3 3 4 4 5 5 6 13 8 9 5 5 5 4 4
5 6 7 7 7 5 5 4 4 3 3 4 4 5 6 4 3 1 2 1 2 2 2 3 3 2 2 3 4 3 3 3 4 2 1 2 2 3 2 2 3 3 4 5 5 5 5 5 5 5 5 4 4 5
6 7 7 7 6 5 4 6 6 6 5 6 5 5 5 5 6 4 2 2 2 3 5 3 3 3 2 2 2 3 7 4 5 4 4 2 2 3 2 2 1 2 3 4 3 4 4 4 3 3 4 4 4 3
6 6 6 6 7 8 5 6 7 8 7 7 6 5 5 5 7 4 1 1 2 2 2 2 1 1 1 1 3 3 6 6 8 11 10 11 11 7 3 2 2 2 2 3 3 3 3 3 2 2 3 3 3 3

GFSWCAN_con_lsi_165.txt.gz
Lid_Strength_Index
6 6 5 4 4 4 3 3 3 3 3 2 2 2 2 2 3 5 6 4 6 8 8 7 7 10 10 11 13 10 10 9 9 12 13 13 15 13 14 13 15 15 18 16 16 17 19 10 12 16 13 11 9 8
6 5 4 4 4 4 4 4 3 3 3 2 2 2 2 2 3 4 7 4 3 7 8 5 6 6 7 7 10 9 10 9 9 11 11 11 13 13 13 16 12 16 15 16 16 16 12 10 11 11 10 9 8 8
5 4 4 4 4 4 4 4 3 3 3 3 2 2 3 2 3 4 6 5 6 8 7 7 7 5 4 5 5 9 8 6 7 6 9 10 14 12 15 15 14 12 12 15 14 12 12 11 11 10 9 8 8 8
6 5 5 4 4 4 4 3 3 3 3 3 3 3 3 3 3 4 6 5 6 7 11 9 4 7 5 5 3 4 5 4 5 6 8 10 13 10 13 13 15 14 14 14 14 12 12 11 11 10 9 8 8 8
6 6 5 5 4 4 4 4 3 3 3 3 3 3 3 3 3 4 5 5 5 7 11 10 7 6 5 4 4 3 4 5 6 8 9 10 9 11 11 12 14 14 15 15 16 13 13 13 10 10 9 9 9 9
7 6 5 5 4 4 4 4 3 3 3 3 3 3 3 3 4 6 8 4 4 4 9 12 8 7 5 4 4 5 4 5 6 8 8 8 7 10 13 14 13 12 11 12 14 11 11 10 10 9 9 9 9 8
7 6 6 5 4 4 4 4 4 3 3 3 3 3 3 4 5 8 8 6 5 4 8 12 10 6 5 4 4 4 4 5 6 7 8 8 8 9 12 15 13 12 12 12 11 11 12 11 12 9 9 9 8 9
7 7 6 5 4 4 3 3 3 3 3 3 3 4 4 5 5 8 5 4 4 6 7 12 11 9 4 7 7 4 7 6 6 8 7 9 9 9 14 13 12 11 12 12 12 10 11 10 9 10 9 9 9 10
7 6 6 5 4 3 3 3 3 3 3 4 4 5 6 7 8 6 4 4 4 6 10 10 12 12 4 6 6 6 6 10 6 9 9 8 10 13 12 12 12 12 13 13 12 11 11 10 11 10 10 10 11 10
6 6 5 5 4 3 3 2 2 3 4 5 6 8 9 6 2 3 6 8 9 9 9 12 8 11 8 8 8 8 7 10 12 10 7 10 12 9 9 10 10 11 12 11 13 13 12 11 11 11 11 10 10 10
5 5 5 5 4 3 2 2 3 4 5 6 7 7 5 2 4 6 8 9 10 11 10 10 9 11 7 9 9 7 10 9 12 11 11 13 13 9 9 10 10 10 11 11 11 11 10 10 11 11 11 10 10 10
5 5 5 5 5 4 3 3 3 5 5 5 6 4 4 5 6 9 9 8 9 10 8 8 8 8 7 5 8 8 11 9 13 8 11 14 10 8 9 10 11 11 11 11 11 11 9 10 10 10 11 11 10 9
4 4 4 5 5 4 4 3 3 3 4 4 6 7 7 7 11 11 12 10 10 7 6 7 8 7 6 6 8 9 11 12 8 12 14 12 8 8 9 10 11 11 11 11 11 10 9 10 9 9 10 10 10 9
5 4 4 4 4 5 4 3 3 4 4 7 8 11 10 10 9 9 9 8 6 6 7 7 8 8 7 8 8 11 9 9 13 15 14 9 8 8 9 10 11 12 11 11 11 10 10 10 10 10 10 10 11 11
4 4 4 4 4 2 2 1 3 3 5 8 8 11 9 7 6 5 5 6 5 5 6 7 7 7 8 9 8 9 11 13 13 14 11 7 7 8 9 10 11 11 11 11 11 10 10 9 10 10 10 10 10 11
4 4 4 3 3 2 2 2 3 4 7 8 8 9 7 8 8 7 6 6 5 5 5 6 8 9 10 9 10 11 12 14 13 9 7 6 7 8 9 10 10 10 11 11 11 10 10 10 10 11 10 10 11 10
4 6 3 3 2 1 2 4 6 8 9 8 8 5 6 7 7 6 5 5 4 6 9 8 10 10 8 10 11 10 12 10 8 7 6 6 6 7 8 9 9 10 11 10 10 10 11 10 9 10 11 10 10 10
5 4 3 2 2 4 5 5 7 8 9 8 8 6 5 5 6 5 5 4 5 6 7 9 7 11 12 13 12 9 8 7 6 6 5 6 6 6 7 8 9 9 10 10 10 10 10 11 11 11 11 10 10 10
3 3 2 3 3 5 7 7 6 9 7 6 5 4 5 5 4 4 4 4 4 5 6 7 9 11 10 8 8 7 7 6 7 6 5 5 5 5 5 7 8 9 9 9 10 10 10 10 11 11 11 11 11 10
2 2 2 2 2 5 7 6 4 7 7 6 5 6 6 5 5 5 5 5 5 6 8 9 9 8 8 6 5 6 5 5 6 7 6 6 5 5 5 6 8 8 9 9 9 10 10 10 10 10 11 11 11 11
2 2 1 2 3 4 6 6 6 5 5 6 5 5 6 5 6 6 6 5 6 7 8 6 6 5 4 4 4 4 4 5 5 6 7 6 5 5 5 5 7 7 9 9 10 11 11 10 10 10 11 11 10 10
2 2 3 3 5 6 6 4 6 4 6 6 6 6 7 8 7 6 5 6 7 6 5 5 5 5 5 5 4 5 3 4 4 5 5 5 5 5 5 5 7 8 9 9 9 10 10 10 10 10 11 11 11 11
2 3 4 5 7 6 7 4 7 6 8 7 6 8 8 7 6 4 7 6 5 4 4 4 3 4 4 3 3 3 3 4 5 5 5 4 4 4 5 5 6 7 9 9 9 9 10 11 11 11 11 10 11 11
2 5 7 7 7 8 5 7 6 7 6 7 8 9 8 8 5 7 8 7 5 4 4 4 4 5 4 4 5 4 3 3 4 4 4 4 4 5 4 5 5 6 7 8 8 9 9 10 11 10 11 11 11 12
8 8 7 9 6 8 8 9 8 8 9 8 8 8 7 6 9 9 8 6 5 5 5 4 4 4 5 5 4 4 2 3 4 5 3 3 4 4 5 5 6 6 6 7 8 9 10 10 10 10 10 11 11 11
10 7 8 7 7 8 8 9 8 8 8 8 8 6 6 8 9 9 8 7 6 5 5 5 5 5 5 4 5 4 4 2 2 4 3 2 3 5 6 7 7 7 6 6 7 8 9 9 10 9 10 11 13 11
10 8 6 4 5 6 7 6 6 7 9 9 8 8 8 11 10 8 6 5 5 4 3 3 3 4 4 4 3 2 2 2 2 3 2 2 3 3 4 5 6 6 5 6 7 7 8 9 9 9 9 9 10 10
6 6 9 7 6 5 8 7 8 9 9 7 8 9 10 10 10 6 5 3 3 2 2 2 2 2 3 3 2 2 2 2 1 1 2 2 2 2 2 2 4 9 5 5 6 6 7 8 7 8 8 9 9 8
7 5 5 7 6 6 7 7 7 7 5 7 9 9 8 6 4 4 3 3 2 3 4 4 3 2 2 2 2 2 2 2 4 5 5 5 4 4 2 2 3 5 5 6 11 8 7 7 7 7 7 7 7 7
6 4 6 7 7 8 7 5 6 5 4 5 5 5 5 4 3 2 2 2 3 4 3 3 2 3 3 3 3 3 3 3 3 3 5 5 4 3 3 2 3 3 5 5 6 8 13 9 10 7 7 7 7 6
5 5 6 7 7 6 5 4 4 4 4 5 5 6 6 5 3 2 2 2 2 2 3 3 3 3 3 3 3 4 4 3 3 3 4 2 2 3 3 2 2 3 4 5 6 6 7 7 7 6 6 6 6 7
6 7 8 8 7 5 4 6 6 6 6 6 6 5 5 6 7 4 2 2 2 3 6 3 3 3 2 2 2 4 8 5 4 5 5 3 2 2 2 2 2 3 5 5 6 6 6 6 6 6 6 6 6 6
6 6 7 7 7 8 6 6 7 7 7 7 7 6 6 6 8 4 1 1 2 2 2 2 2 2 1 1 3 5 6 5 8 10 10 10 10 7 3 2 2 2 4 6 5 6 6 6 6 6 6 6 6 6

GFSWCAN_con_lsi_168.txt.gz
Lid_Strength_Index
7 7 7 6 6 5 5 4 4 3 3 3 2 2 2 2 2 5 7 6 7 9 8 8 8 11 11 12 16 13 12 12 13 14 13 13 14 13 15 13 15 16 18 20 19 18 19 11 11 16 13 13 11 10
8 7 7 6 5 5 4 4 4 3 3 3 3 2 2 2 2 4 8 6 5 7 9 7 6 6 7 7 11 12 12 12 11 12 11 11 13 12 14 17 11 16 15 18 17 19 14 10 11 10 11 11 9 9
7 8 7 6 5 4 4 4 4 3 3 3 3 2 2 2 2 4 7 6 8 9 9 10 9 7 6 6 6 12 11 9 10 8 9 10 13 11 15 14 14 12 12 15 15 13 12 12 10 10 10 10 8 8
8 8 7 6 5 4 4 4 4 3 3 3 2 2 3 3 2 3 6 6 7 8 11 11 7 8 6 6 7 7 8 7 8 8 9 10 12 10 12 12 14 14 14 14 15 13 13 11 11 10 10 9 9 7
8 7 6 6 5 4 4 4 4 3 3 3 3 3 2 2 2 3 5 5 6 8 11 10 7 7 7 8 8 7 8 8 7 9 9 10 9 10 10 11 14 14 15 16 17 13 13 12 10 10 10 9 9 8
7 7 7 6 5 4 4 4 4 3 3 3 3 2 2 2 3 6 8 7 6 6 9 12 9 9 8 7 7 7 6 6 6 8 9 8 6 9 13 14 12 12 11 12 14 11 11 11 10 10 9 9 8 8
7 7 7 6 6 4 4 4 3 3 3 3 2 2 2 3 5 7 8 6 4 5 9 13 14 9 7 7 7 6 4 5 6 7 8 9 8 8 11 15 12 11 11 12 11 11 11 11 12 10 9 8 8 7
7 7 7 7 6 5 4 3 3 3 3 3 3 3 3 4 4 7 5 4 4 7 8 13 13 11 7 9 8 5 7 6 7 8 7 9 8 9 13 12 11 11 11 12 11 10 11 10 10 10 9 9 9 10
6 7 6 6 6 5 4 3 3 3 3 4 4 4 6 7 8 6 3 3 4 7 10 10 14 16 8 8 8 7 6 10 6 9 9 8 10 13 13 12 11 12 12 13 11 11 10 10 11 11 10 10 10 10
6 6 6 6 6 5 4 3 2 3 3 4 5 6 8 5 2 3 6 8 8 8 8 12 11 13 10 11 11 11 9 11 13 10 7 11 12 10 11 10 10 11 11 11 13 13 11 11 11 11 11 10 10 10
6 5 5 5 5 5 4 3 2 3 4 5 6 7 5 2 4 6 9 9 9 11 11 11 10 13 10 12 12 9 11 11 14 11 11 15 12 9 9 10 10 10 10 10 10 10 10 10 11 11 10 10 9 9
5 5 4 4 4 4 4 4 3 4 5 5 6 5 5 6 7 9 10 8 9 11 9 10 10 10 10 8 8 9 11 10 15 9 12 16 11 9 9 10 11 11 11 11 10 10 10 10 10 10 10 10 9 9
4 4 4 4 4 4 4 4 3 2 4 5 6 8 8 8 11 12 13 11 11 8 7 7 9 7 7 6 8 10 12 13 9 12 14 12 10 8 9 10 11 10 11 10 10 9 9 10 10 10 10 9 9 9
4 4 4 4 3 3 2 2 3 4 5 8 9 12 10 11 10 10 9 8 7 6 7 7 8 8 7 9 9 12 10 10 14 15 15 11 10 9 9 10 11 11 11 11 10 9 9 9 10 10 10 9 9 9
4 4 4 4 3 3 3 2 2 4 6 9 9 12 10 8 7 7 6 6 6 5 6 7 8 8 9 10 9 10 13 14 14 15 12 10 9 8 9 10 11 11 11 11 10 10 9 9 9 10 10 9 9 9
4 4 5 3 3 3 2 3 5 5 7 8 8 9 8 9 9 7 7 7 5 5 6 7 9 10 10 10 11 12 12 14 13 10 10 9 9 9 8 10 10 10 11 10 10 10 9 9 10 10 10 10 9 9
4 7 4 3 3 3 2 5 6 8 9 9 9 8 9 9 9 8 7 7 5 7 9 9 11 11 9 11 12 10 12 10 8 9 9 9 9 8 7 9 10 10 10 10 10 10 10 9 9 10 11 10 10 9
7 6 3 3 3 4 5 5 7 9 10 10 10 10 8 7 7 6 6 6 6 7 8 9 8 11 12 13 12 10 9 8 7 8 9 8 8 7 7 9 9 10 10 10 10 10 10 10 10 11 10 10 11 10
5 5 3 3 4 6 7 7 7 10 9 9 9 8 8 7 6 6 6 6 6 5 6 7 10 11 11 9 9 8 8 8 9 9 9 7 6 6 6 7 9 9 9 10 10 11 10 9 10 10 10 10 11 11
3 3 3 3 4 7 8 8 5 8 9 9 8 8 8 7 6 7 6 6 7 7 8 9 9 8 8 7 6 6 6 8 8 10 9 6 6 5 6 6 8 9 9 9 10 11 11 10 10 10 10 10 11 11
3 4 3 3 5 6 7 7 6 7 8 8 7 7 7 7 8 8 8 6 8 8 9 7 6 5 4 4 5 5 6 7 8 8 9 8 6 5 6 6 7 8 9 10 10 11 11 11 11 10 10 10 10 10
5 2 3 3 5 6 7 6 7 5 6 7 7 6 8 8 8 8 6 8 9 8 8 7 7 5 5 5 5 5 4 6 7 7 7 6 6 6 5 6 7 8 9 10 10 10 11 10 10 10 10 10 11 10
3 3 5 5 7 8 9 6 7 6 10 9 7 9 8 8 7 5 8 8 8 7 7 7 4 4 4 4 4 4 4 6 7 7 7 7 6 5 5 6 5 7 9 10 9 10 10 11 11 10 11 11 11 11
2 6 7 8 8 10 6 8 7 8 8 9 9 9 9 8 6 8 9 8 7 7 5 5 4 5 5 5 5 6 7 7 7 7 5 6 7 5 4 5 6 6 7 8 9 9 10 10 11 11 11 11 11 12
8 9 7 10 7 9 9 9 8 9 10 9 9 9 8 7 10 10 9 8 6 6 6 5 5 6 6 6 5 5 6 6 6 7 6 6 6 6 5 5 6 6 7 9 10 10 10 10 10 11 11 11 12 12
11 8 10 8 8 9 8 10 10 10 9 9 9 7 7 9 10 11 9 7 7 6 6 5 6 6 5 5 5 6 6 5 5 6 6 6 6 6 6 7 7 7 6 8 9 10 10 11 11 11 11 12 14 12
10 9 7 6 6 7 8 7 7 9 10 10 9 9 9 11 11 9 6 5 5 5 5 3 4 4 6 6 4 4 4 4 4 4 4 4 5 5 5 6 7 6 6 6 8 8 10 10 10 11 11 11 11 11
8 6 9 7 7 7 9 8 8 10 9 7 8 10 11 11 10 6 5 3 3 3 3 4 3 4 4 5 5 4 4 2 2 3 3 4 5 4 4 5 5 8 5 5 7 7 8 9 10 10 10 11 11 10
8 6 6 8 7 7 7 8 8 7 6 7 9 9 9 6 5 5 4 3 3 4 4 4 4 3 3 4 4 4 2 4 4 5 6 7 6 6 4 4 4 5 5 6 11 9 7 8 8 9 9 9 9 9
7 6 8 8 8 9 7 6 7 5 5 5 6 6 5 5 3 2 3 3 4 4 4 4 5 5 6 6 6 6 5 4 4 4 6 6 5 3 2 3 4 5 5 5 7 8 13 10 11 9 9 9 9 9
6 7 7 8 8 6 6 5 5 5 5 5 5 7 7 5 4 2 2 2 3 3 4 6 6 5 5 6 7 7 7 6 6 4 4 4 3 2 2 2 3 3 4 5 6 7 8 9 8 8 8 8 8 8
7 8 9 9 8 6 5 6 6 7 6 7 7 6 6 6 7 4 3 3 5 6 8 6 6 6 5 5 5 6 9 5 6 8 5 5 3 3 2 2 2 3 4 5 5 7 7 7 7 7 8 8 8 7
8 8 8 7 8 8 6 7 7 8 7 7 7 6 6 7 8 5 2 2 3 4 5 5 5 4 2 3 4 6 7 5 7 10 10 10 10 6 2 2 2 2 4 6 6 6 7 7 7 7 8 8 8 7

GFSWCAN_con_lsi_171.txt.gz
Lid_Strength_Index
8 8 7 7 7 6 6 6 5 5 4 3 2 2 2 2 2 4 6 6 8 9 9 8 8 11 11 13 16 13 13 13 14 17 16 14 15 13 14 14 14 15 17 20 17 19 20 12 12 15 13 11 11 11
8 8 8 7 7 6 6 6 5 5 4 3 2 2 2 2 2 4 7 5 5 9 9 8 7 6 7 8 11 11 14 13 12 14 12 11 13 12 13 16 11 15 14 16 16 17 13 13 12 10 10 11 11 11
8 8 8 8 7 6 6 6 5 4 3 3 2 2 2 2 2 3 6 6 7 9 10 10 10 7 6 6 6 12 12 11 12 9 11 10 13 11 14 14 14 12 12 15 15 13 14 13 10 10 10 11 10 9
8 8 8 8 8 7 6 5 4 3 3 3 3 3 2 2 2 2 6 5 7 8 12 10 7 8 6 7 7 7 9 9 9 8 10 10 12 9 12 12 14 13 13 14 14 13 13 11 11 10 10 10 9 8
8 8 8 8 8 7 6 5 4 4 3 3 3 3 3 2 2 3 4 5 5 8 11 10 7 7 8 7 7 8 8 10 9 9 9 10 8 9 9 11 14 13 14 15 16 13 13 12 11 10 10 11 9 8
8 8 8 8 8 6 5 5 4 3 3 3 3 3 2 2 3 6 9 7 5 5 9 12 9 9 8 7 8 9 9 10 7 8 9 8 6 9 12 14 11 12 11 11 13 11 11 11 11 10 10 9 9 8
8 8 8 8 7 6 6 5 4 3 3 3 3 3 3 3 5 7 8 6 4 4 8 11 13 10 8 8 8 8 8 7 7 8 8 8 8 8 10 14 12 11 11 11 11 11 11 11 12 10 9 8 8 8
7 7 7 7 7 7 6 5 4 4 3 3 3 4 4 4 5 8 5 3 3 6 7 12 13 11 8 10 9 6 8 7 7 8 7 9 8 8 12 12 11 10 11 11 11 10 11 11 10 10 9 9 9 8
7 7 7 7 7 7 6 5 5 4 3 3 4 4 7 8 9 8 2 2 4 6 9 10 12 15 9 10 8 8 6 10 6 9 9 8 10 12 12 13 11 11 12 12 11 11 10 11 11 10 10 10 9 9
7 7 7 6 6 6 6 6 5 4 3 3 6 8 8 6 1 1 5 7 8 7 8 11 10 13 10 10 10 10 9 10 12 10 7 10 12 10 10 11 10 10 11 11 12 12 11 11 11 10 10 10 9 9
7 7 6 6 6 5 5 5 5 4 3 6 7 7 6 2 4 6 9 9 9 11 10 9 10 11 9 12 12 10 11 11 14 12 11 16 13 9 10 10 9 10 10 10 10 10 10 10 11 10 10 10 9 9
6 6 5 5 5 5 4 4 4 4 5 4 5 4 5 6 8 9 10 8 9 11 9 10 9 9 9 9 10 8 11 11 15 10 11 16 12 9 9 10 10 10 10 11 10 10 10 10 10 10 9 10 10 9
5 5 5 5 4 4 3 2 2 3 2 4 6 7 8 8 12 12 13 12 11 8 7 7 9 7 6 7 8 10 12 13 10 13 14 13 10 9 9 10 11 10 10 10 10 9 9 10 9 9 9 9 10 10
5 4 4 4 3 3 3 2 1 3 5 7 9 12 11 12 10 11 10 9 7 6 7 7 8 8 7 9 9 12 10 10 14 15 15 12 10 8 9 10 11 11 11 10 10 9 10 10 10 9 9 9 10 10
4 4 4 4 3 3 3 2 2 4 6 9 9 13 11 10 9 8 7 7 6 5 6 7 8 8 9 10 9 10 13 14 14 15 12 11 10 8 9 10 11 11 11 10 10 9 9 9 10 9 9 9 10 10
4 4 5 3 3 3 3 3 4 5 6 8 9 10 9 9 9 9 8 8 6 6 6 7 9 10 11 10 11 12 13 14 13 11 11 11 10 9 8 9 10 10 10 10 10 9 9 9 10 10 9 9 10 10
4 7 4 3 3 3 3 5 6 8 8 9 10 8 9 10 10 10 9 8 6 7 9 9 11 12 9 12 12 11 12 10 10 11 11 10 10 8 7 9 10 10 10 10 9 9 9 9 9 9 10 10 9 10
7 7 4 4 4 5 5 5 7 8 10 9 10 11 10 9 9 8 8 7 7 7 7 9 8 11 12 13 12 9 8 9 9 10 10 9 10 8 7 8 9 10 10 10 10 9 9 9 10 10 10 9 9 10
6 7 4 4 4 8 8 8 7 11 10 9 10 10 10 9 8 7 7 7 6 4 6 8 10 11 11 8 9 8 8 9 10 10 10 10 9 9 8 7 9 9 10 10 10 10 9 9 9 10 10 10 10 10
3 3 3 3 4 9 9 8 6 9 11 10 10 10 10 9 8 8 7 7 7 7 8 9 9 8 8 7 5 6 6 8 9 11 9 9 7 7 7 7 8 9 9 9 10 10 9 10 9 10 10 10 11 11
4 5 3 4 6 7 8 8 8 7 7 10 8 9 8 7 8 8 8 6 7 7 9 7 6 6 4 4 4 5 7 8 9 9 10 8 8 6 6 7 7 9 9 10 10 11 11 11 10 9 10 10 10 10
5 3 4 4 8 7 8 6 8 8 7 7 8 8 8 8 8 8 7 8 8 8 7 7 6 6 5 5 5 5 7 7 8 9 8 7 7 6 7 8 8 8 9 10 10 10 10 10 10 9 10 10 11 11
3 4 5 6 8 8 9 6 8 8 10 9 7 9 8 8 7 5 8 8 8 7 7 7 6 5 5 5 5 5 6 7 9 8 7 8 6 5 5 7 7 7 9 9 9 9 10 11 11 10 10 10 11 12
3 6 8 8 8 10 7 8 6 8 8 9 9 10 9 8 6 8 10 8 8 7 7 6 5 6 6 6 7 7 7 8 9 8 7 7 7 5 5 6 7 7 8 9 9 9 9 10 11 10 10 10 12 12
9 10 8 10 7 9 10 9 9 9 10 9 10 10 9 7 10 10 10 8 7 7 7 6 6 6 6 7 7 7 7 7 8 8 8 7 7 5 5 5 6 6 6 9 9 10 10 9 10 10 10 12 12 12
12 9 10 9 8 9 9 10 10 10 9 10 9 8 7 9 11 11 9 7 6 7 7 6 6 6 6 6 7 7 7 7 7 8 8 7 6 6 6 6 7 7 6 7 9 9 10 10 10 11 12 12 14 12
11 10 8 6 7 7 8 7 7 9 10 10 9 9 9 12 12 9 6 5 5 5 5 4 5 5 6 6 6 6 6 6 5 5 6 6 6 6 6 6 7 6 5 6 8 9 10 10 10 11 11 12 11 11
9 8 9 7 7 7 9 9 9 10 10 8 8 11 11 11 10 7 5 3 3 4 4 3 4 4 5 5 6 5 5 3 3 3 4 5 5 6 4 4 5 8 5 5 7 8 9 10 10 10 11 12 12 10
9 7 7 8 8 8 8 9 8 7 6 7 9 10 9 6 5 5 4 3 3 5 6 6 6 6 6 5 5 6 3 3 4 5 5 6 7 6 4 4 5 6 5 6 11 9 8 9 9 10 10 11 11 11
8 7 9 8 9 9 7 6 7 5 5 5 5 6 5 5 3 2 3 3 5 7 7 6 6 6 7 7 7 6 5 4 4 4 6 5 5 4 3 3 5 5 6 5 6 8 13 11 12 10 10 11 11 11
7 8 9 9 9 7 6 6 6 5 5 5 5 6 7 5 4 3 3 3 4 4 6 7 7 7 7 7 7 7 7 6 6 5 4 4 3 3 3 2 3 5 5 6 6 7 8 9 9 9 9 10 10 11
9 9 9 9 8 6 5 6 7 7 6 7 7 5 6 6 7 5 3 4 6 6 8 7 7 7 6 6 6 6 8 5 5 6 7 5 4 3 3 2 2 3 5 6 6 6 7 8 8 8 9 9 9 10
9 9 8 7 8 8 6 7 7 8 7 8 7 7 6 7 8 5 3 3 4 5 5 5 4 3 3 3 5 6 6 4 6 9 10 10 10 8 3 2 2 3 4 6 6 6 7 7 7 8 8 9 9 9

GFSWCAN_con_lsi_174.txt.gz
Lid_Strength_Index
7 7 7 7 8 8 7 7 6 5 5 5 4 3 3 3 2 4 6 5 7 10 9 9 8 11 12 13 13 11 12 14 14 17 16 17 14 15 14 14 15 14 16 19 17 19 22 12 12 16 14 11 11 11
8 8 8 8 8 8 8 7 6 5 5 4 4 3 3 2 2 3 6 5 5 9 9 8 7 6 7 7 9 10 11 14 13 15 13 12 13 12 13 16 11 15 14 15 16 16 13 12 13 11 10 11 12 11
9 8 9 8 8 8 8 7 6 5 4 4 4 3 3 2 2 3 6 6 7 9 9 11 10 8 6 6 5 10 9 9 12 11 13 10 13 11 14 13 12 11 11 14 14 13 13 12 12 10 10 11 11 10
9 9 8 8 8 8 7 6 5 5 4 4 4 3 3 3 2 3 6 5 6 8 12 11 7 8 6 7 6 6 9 10 10 10 10 10 12 9 12 11 12 11 13 14 14 13 12 12 11 11 11 10 10 9
9 8 8 8 8 8 7 6 5 5 4 4 4 3 3 2 3 3 4 5 5 7 11 10 7 7 7 7 7 7 8 10 11 10 9 10 9 9 9 9 12 13 14 15 15 13 13 12 11 10 11 11 10 10
8 8 8 8 7 7 7 6 6 5 4 4 3 3 3 3 3 6 8 6 5 6 10 13 9 8 7 8 8 8 8 11 10 9 10 9 6 8 12 13 10 11 10 11 13 11 11 11 11 10 10 10 10 9
7 7 7 7 7 7 7 7 6 5 5 4 4 3 4 4 5 7 8 6 4 5 9 11 10 9 8 8 8 10 9 9 9 9 10 9 8 8 10 13 12 10 10 10 10 11 12 11 12 10 10 9 9 8
6 7 7 7 7 7 7 7 6 6 5 4 4 4 4 4 6 9 6 4 4 6 7 11 12 12 8 10 9 7 9 8 8 9 7 9 8 8 12 10 11 10 10 11 11 10 11 10 10 10 9 9 9 9
6 6 7 7 7 7 7 7 7 6 6 4 3 4 8 8 10 7 3 3 3 6 9 10 12 15 8 10 9 7 6 10 7 9 9 8 10 12 10 11 11 10 12 11 10 11 11 10 11 10 9 9 9 9
6 6 6 7 7 7 7 7 6 6 5 4 7 9 11 7 2 2 5 7 8 8 8 10 9 12 10 11 11 9 8 10 12 10 8 10 11 10 10 10 11 10 11 10 12 12 12 12 11 11 10 9 9 9
5 6 7 7 7 7 7 6 6 6 5 7 8 9 7 3 5 6 8 9 9 11 9 9 9 10 7 12 12 10 11 11 14 12 12 13 13 9 8 10 9 9 10 10 10 10 10 11 11 11 10 10 9 9
6 6 5 6 6 6 6 5 4 8 8 7 6 4 5 6 8 9 10 8 9 11 9 10 8 9 9 8 11 9 11 11 14 11 12 16 13 9 9 9 10 10 10 10 10 10 10 10 10 10 10 10 10 10
6 6 6 5 5 5 4 3 3 3 4 4 6 7 8 9 12 12 13 12 11 8 7 7 9 7 6 8 9 9 12 13 10 13 15 13 10 8 8 9 10 10 10 10 10 10 10 10 10 9 10 10 10 10
5 5 5 5 5 4 3 3 2 3 5 8 9 13 11 12 11 11 11 9 7 7 7 8 9 9 7 9 9 12 10 10 14 15 14 12 9 8 8 9 10 11 10 10 10 10 10 10 10 9 10 10 10 11
5 5 5 5 4 4 4 4 3 4 6 10 9 13 12 11 10 9 8 8 7 6 9 9 8 8 9 10 9 10 13 14 14 15 12 11 9 8 8 9 11 11 10 10 9 9 10 9 10 10 10 10 10 11
5 5 6 4 3 3 3 4 6 5 6 9 9 10 10 11 12 11 10 10 8 8 7 8 9 11 11 10 12 13 14 15 13 10 11 11 9 8 8 9 10 10 10 9 9 9 9 9 10 10 10 10 11 11
4 7 5 4 3 3 3 5 6 7 9 10 10 8 10 12 11 12 10 10 8 8 10 9 11 12 9 12 13 11 12 10 8 10 11 10 10 8 7 8 10 10 10 9 9 9 9 9 9 10 11 11 10 10
6 7 4 4 4 6 7 5 7 8 10 10 12 12 11 10 11 10 9 9 9 9 8 9 8 11 12 13 12 9 8 8 9 10 10 10 9 7 7 7 9 10 9 9 9 9 9 9 10 10 10 10 10 10
6 6 4 4 5 8 9 8 7 11 11 10 9 9 10 11 9 8 8 8 8 8 7 7 10 11 11 9 8 8 7 7 10 10 10 10 9 7 7 7 8 9 9 9 9 9 9 9 9 9 9 10 10 10
3 3 3 3 4 8 10 9 6 10 12 11 11 12 11 11 10 9 9 9 9 8 9 10 10 9 8 7 6 7 7 7 9 10 9 10 9 8 7 7 7 9 9 9 9 10 9 9 8 9 9 9 10 10
5 6 4 5 6 7 10 9 8 8 9 11 11 11 11 10 10 10 9 8 8 8 9 8 8 7 5 5 5 6 7 8 9 8 10 8 8 7 7 7 7 8 9 10 10 10 10 9 9 9 9 9 9 10
6 4 6 5 8 8 9 9 9 8 9 9 10 9 10 10 8 8 6 8 8 7 7 7 7 6 6 6 6 6 6 8 9 9 9 8 7 7 7 7 7 7 9 9 9 10 10 9 9 9 9 10 10 10
4 4 6 6 9 9 10 7 9 8 11 11 9 9 8 8 7 5 8 8 8 7 6 6 6 7 6 6 5 6 7 8 9 9 8 8 7 5 7 8 7 7 8 9 9 9 10 11 10 9 9 10 11 11
3 6 8 9 9 11 7 9 7 8 9 10 10 10 9 8 6 8 10 8 8 7 8 8 7 7 6 6 7 7 8 8 9 9 8 7 7 5 6 6 7 7 7 8 9 9 9 9 10 9 10 10 11 12
9 11 10 12 8 9 10 10 10 10 11 10 10 10 9 7 10 10 10 8 7 7 7 7 6 7 7 7 7 7 7 8 8 9 8 7 7 6 6 6 6 7 6 7 9 9 9 9 9 10 10 11 11 11
13 10 11 9 9 10 10 10 10 10 9 10 9 8 8 9 11 11 9 7 7 7 7 7 7 7 7 7 7 8 7 7 7 8 8 7 6 7 7 7 7 7 5 6 8 9 9 9 10 10 10 11 13 11
13 11 9 8 8 8 9 8 8 9 10 10 9 9 10 12 12 9 6 5 5 4 3 4 5 6 6 7 7 6 7 7 6 6 6 6 6 5 5 6 7 6 5 5 6 8 9 9 9 10 10 11 11 11
9 9 10 8 8 7 9 10 9 10 9 8 8 11 11 11 10 6 5 3 4 3 4 4 4 4 5 5 6 7 6 5 4 4 5 6 6 6 5 5 4 8 5 4 5 7 8 8 9 9 10 11 11 11
9 7 7 9 8 8 8 9 9 7 6 7 10 11 11 6 5 4 4 4 4 5 6 6 7 6 6 6 6 5 4 4 4 5 6 6 8 6 5 4 5 5 4 6 9 7 7 8 9 9 10 10 10 10
9 7 9 9 9 9 7 6 7 5 5 6 6 6 5 5 4 3 4 4 6 7 8 8 8 7 8 8 7 7 6 5 4 4 5 5 5 4 4 3 4 5 5 4 6 8 12 10 11 10 10 10 11 11
8 8 9 9 10 7 7 6 6 6 5 5 5 6 7 5 4 4 4 4 5 6 7 7 7 7 7 7 7 7 7 6 6 6 6 5 3 3 3 3 3 4 4 5 6 7 8 9 9 10 10 10 11 11
9 10 10 10 8 6 5 6 7 7 8 7 7 6 6 6 7 5 4 4 5 7 9 7 6 6 6 6 6 6 8 4 4 5 6 6 5 3 2 2 3 4 4 4 5 6 7 8 9 9 9 10 10 10
9 9 8 8 8 8 6 7 7 8 7 7 8 7 6 7 8 5 3 4 5 5 5 4 4 4 3 3 4 5 7 3 6 9 10 10 10 9 6 2 2 2 3 4 5 5 6 7 7 8 8 9 10 10